Content
SEND FEEDBACK

Daily
Averages
Monthly
Summary
France

PORT-EN-BESSIN-HUPPAIN, FRANCE


Home > Europe > France
Elevation: 239 feet     Latitude: 49 21N     Longitude: 000 46W

WEATHER
 
SELECT A DAY
Number of Records: 216,049;   Date Range: 7/1/96 - 8/31/14
 
SHARE

PRINT THIS DATA

[ ← Previous Day ]
WEATHER ALMANAC - MAY 14, 2013
[ Next Day → ]
[ °C ]   °F
Weather ElementAverageHighLow
Temperature50.4 °F55.4 °F (6:30 pm)46.4 °F (1:00 am)
Dewpoint42.9 °F48.2 °F (6:00 pm)41 °F (12:30 am)
Humidity75.1 %87 % (11:00 pm)51 % (2:00 pm)
Barometer29.73 in29.98 in (12:30 am)29.42 in (10:00 pm)
Wind Speed13.2 mph20.7 mph (10:00 pm)
Wind Gust33.4 mph (10:00 pm)
Weather ElementAverage
Visibility7 mi
Wind DirectionSSW (217.1 °)

Weather ElementTotal
Precipitation---
Heating Degree Days14.1 (Base 65)
Growing Degree Days0.9 (Base 50)
Averaged from 51 records on May 14, 2013
WEATHER CONDITIONS BREAKOUT
WIND DIRECTION BREAKOUT
WEATHER BY HOUR - MAY 14, 2013
[ °C ]   °F
Local TimeTemperatureDewpointHumidityBarometerVisibilityWind DirectionWind SpeedGust SpeedPrecipitationEventsConditions
12:30 AM48.2 °F41.0 °F76 %29.98 in6.2 miWSW (250°)6.9 mph
1:00 AM46.4 °F41.0 °F81 %29.98 in6.2 miWSW (250°)8.1 mph
1:30 AM46.4 °F41.0 °F81 %29.98 in6.2 miWSW (250°)9.2 mphScattered Clouds
2:00 AM47.0 °F41.0 °F73 %29.98 in11.0 miWSW (250°)9.2 mphClear
2:00 AM48.2 °F41.0 °F76 %29.95 in6.2 miWSW (250°)9.2 mph
2:30 AM46.4 °F41.0 °F81 %29.95 in6.2 miWSW (250°)8.1 mph
3:00 AM48.2 °F41.0 °F76 %29.95 in6.2 miWSW (240°)8.1 mph
3:30 AM48.2 °F42.8 °F82 %29.92 in6.2 miWSW (250°)10.4 mph
4:00 AM48.2 °F42.8 °F82 %29.92 in6.2 miWSW (250°)9.2 mph
4:30 AM48.2 °F42.8 °F82 %29.92 in6.2 miWSW (240°)11.5 mphOvercast
5:00 AM48.2 °F42.8 °F82 %29.92 in6.2 miWSW (240°)10.4 mphOvercast
5:30 AM48.2 °F41.0 °F76 %29.89 in6.2 miWSW (250°)10.4 mphOvercast
6:00 AM48.2 °F41.0 °F76 %29.89 in6.2 miWSW (250°)9.2 mph
6:30 AM48.2 °F41.0 °F76 %29.89 in6.2 miSW (220°)6.9 mph
7:00 AM46.4 °F41.0 °F81 %29.86 in6.2 miSW (220°)8.1 mph
7:30 AM46.4 °F41.0 °F81 %29.86 in6.2 miSW (220°)8.1 mph
8:00 AM47.0 °F42.0 °F76 %29.88 in12.0 miSW (220°)9.2 mphOvercast
8:00 AM48.2 °F41.0 °F76 %29.86 in6.2 miSW (220°)9.2 mphMostly Cloudy
8:30 AM48.2 °F41.0 °F76 %29.86 in6.2 miSW (230°)9.2 mphMostly Cloudy
9:00 AM48.2 °F42.8 °F82 %29.86 in6.2 miSW (220°)9.2 mphOvercast
9:30 AM50.0 °F42.8 °F76 %29.86 in6.2 miSW (220°)9.2 mphOvercast
10:00 AM50.0 °F42.8 °F76 %29.83 in6.2 miSW (230°)11.5 mphMostly Cloudy
10:30 AM50.0 °F42.8 °F76 %29.83 in6.2 miSSW (210°)9.2 mphOvercast
11:00 AM50.0 °F41.0 °F71 %29.80 in6.2 miSW (220°)11.5 mphOvercast
11:30 AM51.8 °F41.0 °F67 %29.80 in6.2 miSW (220°)13.8 mphOvercast
12:00 PM51.8 °F42.8 °F71 %29.77 in6.2 miSSW (210°)11.5 mphRainLight Rain
12:30 PM51.8 °F42.8 °F71 %29.77 in6.2 miSouth (190°)11.5 mphMostly Cloudy
1:00 PM53.6 °F42.8 °F67 %29.74 in6.2 miSSW (200°)12.7 mphOvercast
1:30 PM53.6 °F41.0 °F62 %29.71 in6.2 miSSW (210°)15.0 mphOvercast
2:00 PM54.0 °F41.0 °F51 %29.72 in12.0 miSSW (200°)17.3 mphPartly Cloudy
2:00 PM53.6 °F41.0 °F62 %29.71 in6.2 miSSW (200°)18.4 mphMostly Cloudy
2:30 PM53.6 °F41.0 °F62 %29.68 in6.2 miSSW (210°)17.3 mphOvercast
3:00 PM53.6 °F42.8 °F67 %29.68 in6.2 miSouth (190°)18.4 mphMostly Cloudy
3:30 PM53.6 °F42.8 °F67 %29.65 in6.2 miSSW (200°)17.3 mphOvercast
4:00 PM53.6 °F42.8 °F67 %29.62 in6.2 miSSW (200°)19.6 mphOvercast
4:30 PM53.6 °F44.6 °F72 %29.62 in6.2 miSSW (210°)18.4 mphOvercast
5:00 PM51.8 °F46.4 °F82 %29.59 in6.2 miSouth (190°)15.0 mphRainLight Rain
5:30 PM53.6 °F46.4 °F77 %29.59 in6.2 miSouth (180°)16.1 mphOvercast
6:00 PM53.6 °F48.2 °F82 %29.56 in6.2 miSouth (190°)13.8 mphOvercast
6:30 PM55.4 °F48.2 °F77 %29.53 in6.2 miSouth (190°)15.0 mphOvercast
7:00 PM53.6 °F44.6 °F72 %29.50 in6.2 miSouth (190°)18.4 mphOvercast
7:30 PM53.6 °F44.6 °F72 %29.50 in6.2 miSouth (190°)18.4 mphOvercast
8:00 PM54.0 °F45.0 °F62 %29.50 in31.0 miSouth (190°)19.6 mphClear
8:00 PM53.6 °F44.6 °F72 %29.47 in6.2 miSouth (190°)18.4 mphMostly Cloudy
8:30 PM51.8 °F46.4 °F82 %29.47 in6.2 miSouth (180°)18.4 mphRainLight Rain
9:00 PM51.8 °F46.4 °F82 %29.44 in6.2 miSouth (180°)16.1 mphRainLight Rain
9:30 PM51.8 °F44.6 °F76 %29.44 in6.2 miSouth (180°)19.6 mphLight Drizzle
10:00 PM51.8 °F46.4 °F82 %29.42 in6.2 miSSW (200°)20.7 mph33.4 mphRainLight Rain
10:30 PM48.2 °F42.8 °F82 %29.44 in6.2 miWSW (240°)16.1 mphRainLight Rain
11:00 PM46.4 °F42.8 °F87 %29.47 in6.2 miWSW (240°)17.3 mphRainLight Rain
11:30 PM46.4 °F42.8 °F87 %29.47 in6.2 miWSW (250°)16.1 mphMostly Cloudy
Hourly data recorded from LFRK, located miles away from Port-en-Bessin-Huppain, France







STORIES FROM OUR PARTNERS